Location: Unspecified
(22.6800°N, 112.2000°E)
Time: 22:05:55
(UTC+08:00)

Tiros 1 - Visible Passes

Search period start: 04 August 2021 00:00
Search period end: 14 August 2021 00:00
Orbit: 630 x 664 km, 48.4° (Epoch: 03 August)

Date Brightness Start Highest point End Pass type
(mag) Time Alt. Az. Time Alt. Az. Time Alt. Az.
07 Aug 10.1 22:16:56 10° N 22:17:09 11° N 22:17:09 11° N visible
09 Aug 9.4 21:26:48 10° N 21:28:42 16° NNE 21:28:42 16° NNE visible
10 Aug 9.5 21:51:47 10° NNW 21:53:23 20° NNW 21:53:23 20° NNW visible
11 Aug 9.0 20:36:42 10° N 20:39:48 17° NE 20:40:29 17° NE visible
11 Aug 10.1 22:17:35 10° NW 22:18:08 13° NW 22:18:08 13° NW visible
12 Aug 8.1 21:01:34 10° NNW 21:05:18 37° NNE 21:05:18 37° NNE visible
13 Aug 9.2 19:46:37 10° N 19:49:28 16° NE 19:52:19 10° ENE visible
13 Aug 8.5 21:27:16 10° NW 21:30:11 37° WNW 21:30:11 37° WNW visible
